Location: Hopewell Observatory
(38.8698°N, 77.6988°W)
Time: 06:41:16
(UTC-04:00)

Amateur Radio Satellites - All Passes

Search period start: 29 July 2014 06:11
Search period end: 30 July 2014 06:11
Location: Hopewell Observatory, 38.8698°N, 77.6988°W

Satellite Date Start Highest point End Downlink Frequencies (MHz)
Time Altitude Azimuth
AO-7 29 Jul 06:38:03 06:46:02 52° 295° (WNW) 06:53:57 29.400 - 29.500 MHz
Uosat F 29 Jul 06:44:34 06:48:13 21° 295° (WNW) 06:51:50 435.120 FM
ISS 29 Jul 06:59:48 07:03:07 59° 222° (SW) 07:06:24 145.800 FM
MaSat-1 29 Jul 07:00:29 07:05:43 57° 62° (ENE) 07:10:38 437.345 MHz
JAS-2 29 Jul 07:02:29 07:08:03 43° 97° (E) 07:13:06 435.800 - 435.900 CW/SSB, 435.910 FM
KITSAT 1 29 Jul 07:20:21 07:28:22 65° 303° (WNW) 07:36:27 435.175 FM
STRAND 1 29 Jul 07:23:50 07:28:57 67° 258° (WSW) 07:34:05 ?
Hamsat 29 Jul 07:26:33 07:30:50 69° 284° (WNW) 07:35:08 145.90 MHz
PANSAT 29 Jul 07:30:28 07:33:00 17° 185° (S) 07:35:32 not established
SO-67 29 Jul 07:49:12 07:52:15 28° 97° (E) 07:55:15 435.3500 MHz FM
Saudisat 1A 29 Jul 08:05:33 08:09:58 88° 301° (WNW) 08:14:25 436.775 MHz
AO-7 29 Jul 08:35:10 08:36:52 11° 316° (NW) 08:38:34 29.400 - 29.500 MHz
MaSat-1 29 Jul 08:39:08 08:42:31 18° 260° (W) 08:45:45 437.345 MHz
JAS-2 29 Jul 08:48:12 08:52:47 24° 297° (WNW) 08:57:03 435.800 - 435.900 CW/SSB, 435.910 FM
HO-68 29 Jul 09:09:20 09:14:41 22° 93° (E) 09:19:59 435.675 MHz FM
KITSAT 1 29 Jul 09:20:22 09:25:30 18° 326° (NW) 09:30:39 435.175 FM
SO-67 29 Jul 09:23:02 09:25:04 15° 291° (WNW) 09:27:06 435.3500 MHz FM
Sapphire 29 Jul 09:33:20 09:37:58 28° 51° (NE) 09:42:34 437.095 MHz 1200 baud AX-25 AFSK
UKube-1 29 Jul 09:42:56 09:46:15 21° 95° (E) 09:49:33 145.840 MHz, 145.915 MHz
Saudisat 1A 29 Jul 09:48:25 09:50:13 12° 319° (NW) 09:52:00 436.775 MHz
PCSat 29 Jul 10:06:20 10:11:39 54° 58° (ENE) 10:16:56 145.825 MHz
Oscar 11 29 Jul 10:27:18 10:31:16 34° 97° (E) 10:35:14 145.825 FM, Beacon 2401.500 USB
FUNcube-1 29 Jul 10:49:55 10:53:08 21° 95° (E) 10:56:23 145.950 - 145.970 MHz USB
HO-68 29 Jul 10:55:47 11:02:50 64° 290° (WNW) 11:09:51 435.675 MHz FM
Sapphire 29 Jul 11:16:26 11:21:30 42° 249° (WSW) 11:26:33 437.095 MHz 1200 baud AX-25 AFSK
UKube-1 29 Jul 11:18:38 11:22:29 31° 290° (WNW) 11:26:19 145.840 MHz, 145.915 MHz
PCSat 29 Jul 11:50:49 11:54:37 20° 255° (WSW) 11:58:23 145.825 MHz
Oscar 11 29 Jul 12:04:05 12:07:12 20° 293° (WNW) 12:10:20 145.825 FM, Beacon 2401.500 USB
FUNcube-1 29 Jul 12:25:57 12:29:32 28° 290° (WNW) 12:33:09 145.950 - 145.970 MHz USB
JAS-1B 29 Jul 12:27:41 12:28:28 10° 43° (NE) 12:29:15 435.800 - 435.900 CW/SSB
Oscar 19 29 Jul 12:30:48 12:32:52 13° 61° (ENE) 12:34:57 437.125 CW, 437.150 USB
HO-68 29 Jul 12:46:57 12:49:10 12° 309° (NW) 12:51:23 435.675 MHz FM
SO-50 29 Jul 12:51:54 12:56:20 79° 120° (ESE) 13:00:53 436.795 FM
Oscar 16 29 Jul 12:57:00 13:01:00 24° 66° (ENE) 13:05:01 437.025 USB, Beacon 2401.1428
RS-15 29 Jul 12:59:10 13:09:25 44° 109° (ESE) 13:19:24 29.354 - 29.394 USB, Beacon 29.352 USB
ITAMSAT 1 29 Jul 13:19:28 13:22:50 18° 63° (ENE) 13:26:12 435.822 SSB
KITSAT 1 29 Jul 13:21:07 13:25:16 15° 29° (NNE) 13:29:25 435.175 FM
Uribyol 2 29 Jul 13:37:41 13:42:00 27° 67° (ENE) 13:46:19 436.500 FM
AO-27 29 Jul 13:37:42 13:41:59 26° 66° (ENE) 13:46:16 436.795 MHz FM
Gurwin Techsat 1B 29 Jul 14:03:18 14:06:55 19° 64° (ENE) 14:10:31 435.225 FM
Oscar 19 29 Jul 14:06:24 14:11:31 79° 257° (WSW) 14:16:39 437.125 CW, 437.150 USB
JAS-1B 29 Jul 14:07:57 14:16:15 44° 64° (ENE) 14:25:19 435.800 - 435.900 CW/SSB
AO-Echo 29 Jul 14:19:03 14:24:17 65° 74° (ENE) 14:29:34 ?
SO-50 29 Jul 14:35:05 14:37:29 14° 319° (NW) 14:39:55 436.795 FM
Oscar 16 29 Jul 14:35:20 14:40:06 39° 262° (W) 14:44:54 437.025 USB, Beacon 2401.1428
UOSAT-12 29 Jul 14:50:12 14:54:47 89° 123° (ESE) 14:59:29 437.025 FM, 437.400 FM
ITAMSAT 1 29 Jul 14:56:44 15:01:51 57° 259° (W) 15:07:00 435.822 SSB
RS-15 29 Jul 15:10:42 15:21:29 54° 310° (NW) 15:32:08 29.354 - 29.394 USB, Beacon 29.352 USB
KITSAT 1 29 Jul 15:15:00 15:22:51 51° 54° (NE) 15:30:38 435.175 FM
TMSAT-1 29 Jul 15:16:25 15:21:39 64° 74° (ENE) 15:26:54 436.925 FM
AO-27 29 Jul 15:16:31 15:21:18 36° 262° (W) 15:26:07 436.795 MHz FM
Uribyol 2 29 Jul 15:16:36 15:21:18 35° 263° (W) 15:26:02 436.500 FM
Gurwin Techsat 1B 29 Jul 15:41:14 15:46:25 54° 260° (W) 15:51:39 435.225 FM
AO-7 29 Jul 15:43:11 15:50:52 43° 62° (ENE) 15:58:33 29.400 - 29.500 MHz
JAS-1B 29 Jul 15:58:07 16:06:29 48° 264° (W) 16:15:53 435.800 - 435.900 CW/SSB
AO-Echo 29 Jul 16:00:35 16:03:28 15° 269° (W) 16:06:22 ?
Uosat F 29 Jul 16:16:54 16:21:48 55° 72° (ENE) 16:26:44 435.120 FM
UOSAT-12 29 Jul 16:33:16 16:35:37 14° 320° (NW) 16:37:59 437.025 FM, 437.400 FM
Saudisat 1A 29 Jul 16:33:35 16:37:53 50° 55° (NE) 16:42:08 436.775 MHz
TMSAT-1 29 Jul 16:59:10 17:02:00 15° 269° (W) 17:04:51 436.925 FM
KITSAT 1 29 Jul 17:10:51 17:17:57 35° 252° (WSW) 17:25:01 435.175 FM
OPAL 29 Jul 17:11:33 17:16:35 62° 104° (ESE) 17:21:40 ?
JAS-2 29 Jul 17:12:39 17:18:20 23° 62° (ENE) 17:23:45 435.800 - 435.900 CW/SSB, 435.910 FM
RS-15 29 Jul 17:29:43 17:37:10 20° 340° (NNW) 17:44:40 29.354 - 29.394 USB, Beacon 29.352 USB
AO-7 29 Jul 17:35:45 17:43:33 43° 260° (W) 17:51:25 29.400 - 29.500 MHz
Uosat F 29 Jul 17:57:52 18:00:54 16° 268° (W) 18:03:57 435.120 FM
Saudisat 1A 29 Jul 18:14:25 18:17:02 16° 251° (WSW) 18:19:39 436.775 MHz
Hamsat 29 Jul 18:18:31 18:22:40 71° 76° (ENE) 18:26:51 145.90 MHz
OPAL 29 Jul 18:51:54 18:54:58 16° 299° (WNW) 18:58:02 ?
JAS-2 29 Jul 18:54:53 19:02:43 74° 258° (WSW) 19:10:05 435.800 - 435.900 CW/SSB, 435.910 FM
STRAND 1 29 Jul 19:35:52 19:40:46 45° 99° (E) 19:45:37 ?
HO-68 29 Jul 19:38:39 19:42:43 16° 55° (NE) 19:46:46 435.675 MHz FM
RS-15 29 Jul 19:48:14 19:55:32 19° 18° (NNE) 20:02:55 29.354 - 29.394 USB, Beacon 29.352 USB
SO-67 29 Jul 19:53:35 19:56:58 51° 260° (W) 20:00:22 435.3500 MHz FM
UKube-1 29 Jul 20:38:00 20:40:50 17° 65° (ENE) 20:43:40 145.840 MHz, 145.915 MHz
JAS-2 29 Jul 20:45:40 20:48:34 12° 273° (W) 20:51:24 435.800 - 435.900 CW/SSB, 435.910 FM
MaSat-1 29 Jul 20:51:04 20:54:28 28° 104° (ESE) 20:58:20 437.345 MHz
STRAND 1 29 Jul 21:15:53 21:19:37 21° 295° (WNW) 21:23:20 ?
Oscar 11 29 Jul 21:21:37 21:25:04 24° 69° (ENE) 21:28:31 145.825 FM, Beacon 2401.500 USB
HO-68 29 Jul 21:22:12 21:29:22 85° 73° (ENE) 21:36:34 435.675 MHz FM
SO-50 29 Jul 21:24:37 21:29:16 50° 55° (NE) 21:33:57 436.795 FM
FUNcube-1 29 Jul 21:46:08 21:48:48 16° 67° (ENE) 21:51:26 145.950 - 145.970 MHz USB
RS-15 29 Jul 22:00:51 22:11:30 50° 49° (NE) 22:22:27 29.354 - 29.394 USB, Beacon 29.352 USB
UKube-1 29 Jul 22:12:34 22:16:42 41° 261° (W) 22:20:52 145.840 MHz, 145.915 MHz
MaSat-1 29 Jul 22:28:10 22:31:43 27° 306° (NW) 22:35:44 437.345 MHz
Oscar 11 29 Jul 22:57:28 23:01:07 27° 264° (W) 23:04:49 145.825 FM, Beacon 2401.500 USB
SO-50 29 Jul 23:06:13 23:09:27 18° 250° (WSW) 23:12:43 436.795 FM
HO-68 29 Jul 23:13:48 23:17:50 16° 269° (W) 23:21:53 435.675 MHz FM
FUNcube-1 29 Jul 23:20:47 23:24:53 41° 261° (W) 23:28:55 145.950 - 145.970 MHz USB
UOSAT-12 29 Jul 23:21:05 23:25:44 53° 55° (NE) 23:30:18 437.025 FM, 437.400 FM
ISS 29 Jul 23:40:57 23:44:16 89° 306° (NW) 23:47:38 145.800 FM
RS-15 30 Jul 00:13:25 00:23:49 49° 250° (WSW) 00:34:38 29.354 - 29.394 USB, Beacon 29.352 USB
Sapphire 30 Jul 00:14:08 00:18:47 30° 109° (ESE) 00:23:27 437.095 MHz 1200 baud AX-25 AFSK
PCSat 30 Jul 00:46:36 00:51:55 65° 114° (ESE) 00:57:18 145.825 MHz
UOSAT-12 30 Jul 01:02:30 01:05:26 17° 251° (WSW) 01:08:20 437.025 FM, 437.400 FM
ISS 30 Jul 01:19:08 01:21:24 17° 339° (NNW) 01:23:40 145.800 FM
Sapphire 30 Jul 01:57:07 02:02:04 36° 306° (NW) 02:07:04 437.095 MHz 1200 baud AX-25 AFSK
JAS-1B 30 Jul 01:59:53 02:03:04 12° 81° (E) 02:06:06 435.800 - 435.900 CW/SSB
Oscar 19 30 Jul 02:19:26 02:24:18 40° 98° (E) 02:29:10 437.125 CW, 437.150 USB
AO-Echo 30 Jul 02:28:48 02:32:43 23° 94° (E) 02:36:30 ?
PCSat 30 Jul 02:31:56 02:35:49 20° 313° (NW) 02:39:43 145.825 MHz
Oscar 16 30 Jul 02:47:47 02:52:59 81° 103° (ESE) 02:58:10 437.025 USB, Beacon 2401.1428
OPAL 30 Jul 02:50:42 02:52:17 12° 58° (ENE) 02:53:52 ?
ITAMSAT 1 30 Jul 03:10:52 03:15:59 57° 101° (E) 03:21:02 435.822 SSB
Uribyol 2 30 Jul 03:30:01 03:35:12 88° 284° (WNW) 03:40:21 436.500 FM
AO-27 30 Jul 03:30:19 03:35:32 89° 102° (ESE) 03:40:42 436.795 MHz FM
TMSAT-1 30 Jul 03:34:04 03:38:35 28° 96° (E) 03:43:05 436.925 FM
JAS-1B 30 Jul 03:46:08 03:55:27 72° 102° (ESE) 04:03:16 435.800 - 435.900 CW/SSB
AO-7 30 Jul 03:49:40 03:52:15 12° 88° (E) 03:54:49 29.400 - 29.500 MHz
Gurwin Techsat 1B 30 Jul 03:58:36 04:03:54 68° 102° (ESE) 04:09:10 435.225 FM
Oscar 19 30 Jul 03:59:21 04:03:23 24° 294° (WNW) 04:07:25 437.125 CW, 437.150 USB
AO-Echo 30 Jul 04:06:57 04:11:35 37° 290° (WNW) 04:16:04 ?
OPAL 30 Jul 04:25:30 04:30:27 84° 254° (WSW) 04:35:25 ?
Uosat F 30 Jul 04:26:58 04:30:25 18° 93° (E) 04:33:50 435.120 FM
Oscar 16 30 Jul 04:29:32 04:31:37 13° 299° (WNW) 04:33:42 437.025 USB, Beacon 2401.1428
ISS 30 Jul 04:35:00 04:37:08 16° 20° (NNE) 04:39:15 145.800 FM
ITAMSAT 1 30 Jul 04:51:41 04:54:59 17° 297° (WNW) 04:58:17 435.822 SSB
Uribyol 2 30 Jul 05:12:43 05:13:52 11° 301° (WNW) 05:15:00 436.500 FM
AO-27 30 Jul 05:12:45 05:14:15 11° 301° (WNW) 05:15:45 436.795 MHz FM
TMSAT-1 30 Jul 05:13:46 05:18:29 34° 291° (WNW) 05:23:12 436.925 FM
PANSAT 30 Jul 05:26:07 05:28:30 16° 172° (S) 05:30:53 not established
JAS-1B 30 Jul 05:37:33 05:44:56 28° 303° (WNW) 05:51:34 435.800 - 435.900 CW/SSB
AO-7 30 Jul 05:37:59 05:46:19 73° 105° (ESE) 05:54:35 29.400 - 29.500 MHz
Gurwin Techsat 1B 30 Jul 05:40:17 05:43:16 15° 298° (WNW) 05:46:16 435.225 FM
KITSAT 1 30 Jul 05:42:00 05:49:23 41° 109° (ESE) 05:56:47 435.175 FM
